Location: East Horndon
(51.5667°N, 0.3500°E)
Time: 22:49:22
(UTC+00:00)

CZ-2C R/B - Pass Details

Date: 08 November 2025
Orbit: 664 x 773 km, 98.4° (Epoch: 03 December)

Event Time Altitude Azimuth Distance (km) Brightness Sun altitude
Rises 05:51:05 0° 5° (N) 3,167 5.6 -11.6°
Reaches altitude 10° 05:53:54 10° 348° (NNW) 2,260 4.7 -11.2°
Maximum altitude 05:57:22 19° 304° (NW) 1,720 3.8 -10.7°
Enters shadow 06:00:41 11° 261° (W) 2,238 4.3 -10.2°
